Flag for U.S.A. Weather past 2 weeks in Cupertino, California, U.S.A.

Now
54 °F

Clear.


Feels Like: 54 °F
Forecast: 53 / 79 °F
Wind: No wind

Location: Moffett Field

Current Time: Sep 5, 2015 at 5:30:14 AM

Latest Report: Sep 5, 2015 at 4:56 AM


Visibility: 10 mi

Pressure: 29.93 "Hg

Humidity: 74%

Dew point: 46 °F

Location of CupertinoLocation

Historic Weather in Cupertino — Graph

°F

Cupertino temperature yesterday

Maximum temperature yesterday: 75 °F (at 1:56 PM)
Minimum temperature yesterday: 54 °F (at 6:56 AM)
Average temperature yesterday: 64 °F

Past Weeks' High & Low Weather Summary

 TemperatureHumidityPressure
High90 °F (Aug 28, 2:56 PM)90% (Aug 26, 1:56 AM)30.08 "Hg (Aug 26, 1:56 AM)
Low54 °F (Sep 4, 6:56 AM)26% (Aug 27, 1:56 PM)29.84 "Hg (Aug 28, 4:56 PM)
Average68 °F66%29.96 "Hg
* Reported Aug 21 3:56 AM — Sep 5 3:56 AM, Cupertino, Weather by CustomWeather, © 2015

Note: Actual official high and low records may vary slightly from our data, if they occured in-between our weather recording intervals... More about our weather records

Advertising

Cupertino weather history for previous 24 hours

 ConditionsComfort  
Time TempWeatherWind HumidityBarometerVisibility
3:56 AM
Sat, Sep 5
56 °FClear.No wind65%29.94 "Hg10 mi
2:56 AM55 °FClear.5 mph74%29.92 "Hg10 mi
1:56 AM58 °FClear.No wind67%29.93 "Hg10 mi
12:56 AM59 °FClear.3 mph67%29.93 "Hg10 mi
11:56 PM
Fri, Sep 4
60 °FClear.No wind65%29.93 "Hg10 mi
10:56 PM61 °FClear.No wind65%29.92 "Hg10 mi
9:56 PM62 °FClear.No wind60%29.92 "Hg10 mi
8:56 PM62 °FClear.No wind60%29.92 "Hg10 mi
7:56 PM64 °FSunny.3 mph56%29.90 "Hg10 mi
6:56 PM65 °FSunny.7 mph54%29.90 "Hg10 mi
5:56 PM68 °FSunny.10 mph45%29.90 "Hg10 mi
4:56 PM71 °FSunny.13 mph41%29.89 "Hg10 mi
3:56 PM73 °FSunny.13 mph37%29.89 "Hg10 mi
2:56 PM74 °FSunny.9 mph33%29.88 "Hg10 mi
1:56 PM75 °FSunny.7 mph34%29.89 "Hg10 mi
12:56 PM73 °FSunny.9 mph40%29.90 "Hg10 mi
11:56 AM72 °FSunny.8 mph43%29.90 "Hg10 mi
10:56 AM69 °FSunny.No wind45%29.91 "Hg10 mi
9:56 AM65 °FSunny.6 mph54%29.91 "Hg10 mi
8:56 AM61 °FSunny.5 mph65%29.91 "Hg10 mi
7:56 AM58 °FSunny.No wind72%29.90 "Hg10 mi
6:56 AM54 °FClear.3 mph77%29.88 "Hg10 mi
5:56 AM55 °FClear.No wind77%29.87 "Hg10 mi
Weather by CustomWeather, © 2015

See weather overviewHow to use our weather pages